sat.trackr.live / text

‹ back to catalog

UNKNOWN

NORAD 85238

UNKNOWN UNKNOWN UNKNOWN

§ Identity

Operator
Country
Launch date
Launch site
Launch vehicle
Mass (kg)
RCS (m²)

External: N2YO · Heavens-Above

§ Orbital elements

Epoch: 2026-05-22T13:32:05.695584Z

Period
103.72 min
Inclination
99.0729°
Eccentricity
0.0064105
Mean motion
13.88371715 rev/d
Perigee alt
887.5 km
Apogee alt
981.2 km
Semi-major
7,312.5 km
B*
5.8028e-5
RAAN
72.2468°
Arg perigee
125.2905°
Mean anomaly
52.7153°
Rev number
63,315

§ Raw data

UNKNOWN1 85238U          26142.56395481  .00000028  00000+0  58028-4 0  99982 85238  99.0729  72.2468 0064105 125.2905  52.7153 13.88371715633158

JSON: /api/v1/satellites/85238 · /tle

For live sub-satellite position, see the globe view (requires WebGL).

§ Visibility from observer

Set your observer location to see the next 7 days of passes ≥ 10°. The values pass through the URL so the page stays shareable.

No JS? Fill the form by hand. The geolocation button needs JavaScript.